Hyannis, MA

4:12 AM EDT on July 23, 2017 (GMT -0400)
Barnstable Municipal-Boardman-Polando Field

Weather History for KHYA - June, 2013

Change the Weather History Date:

Thursday, June 13, 2013

  Actual Average Record
Temperature  
Mean Temperature 62 °F -  
Max Temperature 68 °F 70 °F 91 °F (2017)
Min Temperature 55 °F 55 °F 43 °F (1990)
Degree Days  
Heating Degree Days 4    
Growing Degree Days 12 (Base 50)    
Moisture  
Dew Point 53 °F    
Average Humidity 80    
Maximum Humidity 94    
Minimum Humidity 56    
Precipitation  
Precipitation 0.26 in - - ()
Sea Level Pressure  
Sea Level Pressure 29.74 in    
Wind  
Wind Speed 5 mph (ENE)    
Max Wind Speed 12 mph    
Max Gust Speed 20 mph    
Visibility 9 miles    
Events Rain    
Averages and records for this station are not official NWS values.
T = Trace of Precipitation, MM = Missing Value Source: NWS Daily Summary

Daily Weather History Graph

Daily Weather History Graph

Search for Another Location

Airport or City:

Trip Planner

Search our weather history database for the weather conditions in past years. The results will help you decide how hot, cold, wet, or windy it might be!

Date:

Astronomy

Jun. 13, 2013 Rise Set
Actual Time 5:06 AM EDT 8:16 PM EDT
Civil Twilight 4:32 AM EDT 8:50 PM EDT
Nautical Twilight 3:48 AM EDT 9:34 PM EDT
Astronomical Twilight 2:55 AM EDT 10:26 PM EDT
Moon 9:42 AM EDT (6/13) 11:17 PM EDT (6/13)
Length of Visible Light 16h 18m
Length of Day
15h 10m
Waxing Crescent, 21% of the Moon is Illuminated
Jun 13
Waxing Crescent
Jun 16
First Quarter
Jun 23
Full
Jun 30
Last Quarter
Jul 8
New

Hourly Weather History & Observations

Time (EDT) Temp. Dew Point Humidity Pressure Visibility Wind Dir Wind Speed Gust Speed Precip Events Conditions
12:56 AM 59.0 °F 53.1 °F 81% 29.78 in 10.0 mi WNW 4.6 mph - N/A   Clear
1:56 AM 57.9 °F 51.1 °F 78% 29.77 in 10.0 mi WNW 4.6 mph - N/A   Clear
2:56 AM 57.9 °F 52.0 °F 81% 29.77 in 10.0 mi WNW 5.8 mph - N/A   Clear
3:56 AM 57.9 °F 51.1 °F 78% 29.77 in 10.0 mi NW 4.6 mph - N/A   Clear
4:56 AM 55.9 °F 52.0 °F 87% 29.79 in 10.0 mi West 3.5 mph - N/A   Clear
5:56 AM 55.9 °F 52.0 °F 87% 29.81 in 10.0 mi West 3.5 mph - N/A   Clear
6:56 AM 63.0 °F 53.1 °F 70% 29.81 in 10.0 mi Calm Calm - N/A   Clear
7:56 AM 64.9 °F 52.0 °F 63% 29.81 in 10.0 mi NNW 3.5 mph - N/A   Clear
8:56 AM 68.0 °F 52.0 °F 56% 29.79 in 10.0 mi NNE 5.8 mph - N/A   Clear
9:56 AM 66.0 °F 53.1 °F 63% 29.80 in 10.0 mi Calm Calm - N/A   Partly Cloudy
10:56 AM 64.9 °F 54.0 °F 68% 29.80 in 10.0 mi South 8.1 mph - N/A   Overcast
11:56 AM 62.1 °F 54.0 °F 75% 29.81 in 10.0 mi SE 6.9 mph - 0.00 in Rain Light Rain
12:56 PM 62.1 °F 53.1 °F 72% 29.78 in 10.0 mi Variable 4.6 mph - 0.00 in Rain Light Rain
1:56 PM 60.1 °F 53.1 °F 78% 29.81 in 9.0 mi South 3.5 mph - 0.00 in Rain Light Rain
2:56 PM 59.0 °F 55.0 °F 87% 29.75 in 10.0 mi SE 5.8 mph - 0.04 in Rain Light Rain
3:56 PM 60.1 °F 55.0 °F 83% 29.76 in 10.0 mi East 4.6 mph - 0.00 in   Overcast
4:56 PM 60.1 °F 53.1 °F 78% 29.73 in 10.0 mi East 9.2 mph - N/A   Overcast
5:56 PM 59.0 °F 54.0 °F 83% 29.70 in 10.0 mi East 5.8 mph - 0.00 in Rain Light Rain
6:56 PM 57.9 °F 53.1 °F 84% 29.69 in 10.0 mi East 5.8 mph - 0.00 in   Overcast
7:56 PM 57.9 °F 52.0 °F 81% 29.68 in 10.0 mi East 6.9 mph - N/A   Overcast
8:56 PM 57.0 °F 52.0 °F 83% 29.69 in 10.0 mi East 5.8 mph - N/A   Overcast
9:56 PM 55.9 °F 53.1 °F 90% 29.69 in 3.0 mi ENE 11.5 mph - 0.12 in Rain Rain
10:56 PM 55.0 °F 53.1 °F 93% 29.64 in 10.0 mi ENE 11.5 mph - 0.01 in   Overcast
11:28 PM 55.4 °F 53.6 °F 94% 29.61 in 4.0 mi ENE 11.5 mph - 0.03 in Rain Rain
11:49 PM 55.4 °F 53.6 °F 94% 29.61 in 5.0 mi NE 10.4 mph 19.6 mph 0.08 in Rain Rain
11:56 PM 55.0 °F 53.1 °F 93% 29.62 in 5.0 mi ENE 10.4 mph - 0.09 in Rain Rain